Location: Rosthern
(52.6623°N, 106.3318°W)
Time: 07:08:47
(UTC-06:00)

ACS3 Solar Sail - Visible Passes

Search period start: 13 December 2025 00:00
Search period end: 23 December 2025 00:00
Orbit: 888 x 1001 km, 97.3° (Epoch: 12 December)

Date Brightness Start Highest point End Pass type
(mag) Time Alt. Az. Time Alt. Az. Time Alt. Az.
13 Dec 4.3 04:12:04 10° NNE 04:12:23 12° NNE 04:12:23 12° NNE visible
13 Dec 3.8 05:55:38 10° N 05:56:22 13° N 05:56:22 13° N visible
14 Dec 4.2 04:27:42 10° NNE 04:28:07 12° NNE 04:28:07 12° NNE visible
14 Dec 3.9 06:11:32 10° N 06:12:06 12° NNW 06:12:06 12° NNW visible
15 Dec 4.1 04:43:18 10° N 04:43:48 12° N 04:43:48 12° N visible
15 Dec 3.9 06:27:27 10° NNW 06:27:47 11° NNW 06:27:47 11° NNW visible
16 Dec 4.1 04:58:52 10° N 04:59:25 13° N 04:59:25 13° N visible
17 Dec 4.0 05:14:22 10° N 05:14:56 13° N 05:14:56 13° N visible
18 Dec 4.0 05:29:51 10° N 05:30:23 12° N 05:30:23 12° N visible
19 Dec 4.0 05:45:16 10° N 05:45:45 12° N 05:45:45 12° N visible
20 Dec 4.4 04:16:59 10° NNE 04:17:06 11° NNE 04:17:06 11° NNE visible
20 Dec 4.0 06:00:41 10° N 06:01:02 11° N 06:01:02 11° N visible
21 Dec 4.3 04:32:07 10° N 04:32:20 11° N 04:32:20 11° N visible
21 Dec 4.0 06:16:05 10° N 06:16:16 11° NNW 06:16:16 11° NNW visible
22 Dec 4.2 04:47:11 10° N 04:47:29 11° N 04:47:29 11° N visible
